UPM/LBSAT

Satellite information

Favourite Embed

Satellite Type and Status

PAYLOADIN ORBIT

Key statistics

Satellite UPM/LBSAT at a glance.

Uptime

11073

Days in orbit

Revolutions

≈ 14.8

Per day

Orbit

SSO

Sun Synchronous Orbit

Inclination

98.3

Latest

Satellite identification and parameters

Extended collection of information and parameters for UPM/LBSAT.

Object identification

Identified? True

Debris? False

Object name: UPM/LBSAT

International designator: 1995-033C

Object number (NORAD): 23607

Object ID (CCSDS): 23607

Country: SPAIN (SPN)

Current information (Y/N): Y

RCS size: MEDIUM

Orbital parameters

Period: 97.032 minutes

Inclination: 98.2746 deg

SMA: 6994.712 km

Apoapsis: 620.303 km

Periapsis: 612.85 km

RAAN: 260.2261 deg

Eccentricy: 0.00053273

Argument of periapsis: 168.5507 deg

Mean anomaly: 191.5829 deg

Mean motion: 14.84048294 rev/day

Mean motion (dot): 0.00001925 rev/day2

B* drag term: 0.00023786053 1/REarth

Two-line elements (TLE)

Creation date: Oct. 30, 2025, 3:32 a.m.

Reference frame: TEME

Reference center: EARTH

Epoch: Oct. 29, 2025, 8:28 p.m. UTC

TLE line 0: 0 UPM/LBSAT

TLE line 1: 1 23607U 95033C 25302.85317589 .00001925 00000-0 23786-3 0 9992

TLE line 2: 2 23607 98.2746 260.2261 0005327 168.5507 191.5829 14.84048294631801

Live tracking on map

Real-time ground track for satellite UPM/LBSAT.

In-orbit conjunctions

A list of the most updated potential collisions computed for object UPM/LBSAT.

Target Orbit TCA Probability of collision Miss distance Type
DELTA 1 DEB SSO 2025-03-06 09:43:40 0.0002237227 319.0 (m) DEBRIS
CZ-4 DEB SSO 2024-08-30 02:03:47 0.0001112666 551.0 (m) DEBRIS

Associated space launch

The Helios program is Europe's military optical reconnaissance system consisting of both a space and a ground segment, which commenced service in 1995, jointly funded by the French, Italian and Spanish governments. The Helios I optical observation satellites, launched in July 1995 and December 1999 respectively, can acquire high resolution images of any point on the globe, with daily revisit capability.

UPM/LBSAT was lifted into orbit during the mission ‘Ariane 40 | Helios 1A’, on board a Ariane 40 space rocket.

The launch took place on July 7, 1995, 4:23 p.m. from Ariane Launch Area 2.

For more information about the launch, click the button.

Launch to space Ariane 40 | Helios 1A
Ariane 40 | Helios 1A

Agency: N/A

Status: Launch Successful

Launch date: July 7, 1995, 4:23 p.m. UTC

Rocket: Ariane 40

Launch pad: Ariane Launch Area 2

Location: Guiana Space Centre, French Guiana

...

Latest news about this satellite

There are no fresh news available about this satellite. Check back as we update our databases every day.


Newsletter sign-up

Weekly statistics, charts and insights to help you stay on top of the space industry.